Torna al catalogo

STARLINK-34179

AttivoComunicazioniVLEO
NORAD 64103·PAYLOAD·🇺🇸 United States

Lanciato May 23, 2025 da Vandenberg Space Force Base

Loading…

Prossimi Passaggi (prossime 24 ore)

TLE

AggiornatoSource: CelesTrak SupGP

Epoca: Sep 15, 2026, 02:41 UTC

1 64103C 25110H   26258.11229167 -.00048632  00000+0 -15638-2 0  2582
2 64103  53.1587 226.8475 0001493  88.9022 316.3070 15.31727774    10

Traccia STARLINK-34179 in tempo reale con AllMySat

Download on the App Store